QPF
0.02 0.04 0.10 0.05 0.01 0.00 0.02 0.12 0.10 0.10 0.01 0.00 0.00 0.00 0.00 0.00 0.00 0.00 0.00 0.00 0.00 0.00 0.00 0.00 0.00 0.00 0.00 0.00 0.00 0.00 0.00 0.00 0.00 0.00 0.00 0.00 0.00 0.00 0.00 0.00 0.00 0.00 0.00 0.00 0.00
0.01 0.01 0.04 0.04 0.00 0.01 0.07 0.11 0.09 0.06 0.00 0.00 0.00 0.00 0.00 0.00 0.00 0.00 0.00 0.00 0.00 0.00 0.00 0.00 0.00 0.00 0.00 0.00 0.00 0.00 0.00 0.00 0.00 0.00 0.00 0.00 0.00 0.00 0.00 0.00 0.00 0.00 0.00 0.00 0.00
0.00 0.00 0.01 0.01 0.00 0.01 0.05 0.05 0.02 0.03 0.00 0.00 0.00 0.00 0.00 0.00 0.00 0.00 0.00 0.00 0.00 0.00 0.00 0.00 0.00 0.00 0.00 0.00 0.00 0.00 0.00 0.00 0.00 0.00 0.00 0.00 0.00 0.00 0.00 0.00 0.00 0.00 0.00 0.00 0.00
0.01 0.01 0.02 0.01 0.01 0.04 0.05 0.02 0.01 0.03 0.00 0.00 0.00 0.00 0.00 0.00 0.00 0.00 0.00 0.00 0.00 0.00 0.00 0.00 0.00 0.00 0.00 0.00 0.00 0.00 0.00 0.00 0.00 0.00 0.00 0.00 0.00 0.00 0.00 0.00 0.00 0.00 0.00 0.00 0.00
0.01 0.00 0.00 0.01 0.01 0.00 0.02 0.02 0.01 0.00 0.00 0.00 0.00 0.00 0.00 0.00 0.00 0.00 0.00 0.00 0.00 0.00 0.00 0.00 0.00 0.00 0.00 0.00 0.00 0.00 0.00 0.00 0.00 0.00 0.00 0.00 0.00 0.00 0.00 0.00 0.00 0.00 0.00 0.00 0.00
0.02 0.02 0.02 0.01 0.01 0.01 0.02 0.02 0.00 0.00 0.00 0.00 0.00 0.00 0.00 0.00 0.00 0.00 0.00 0.00 0.00 0.00 0.00 0.00 0.00 0.00 0.00 0.00 0.00 0.00 0.00 0.00 0.00 0.00 0.00 0.00 0.00 0.00 0.00 0.00 0.00 0.00 0.00 0.00 0.00
0.00 0.00 0.01 0.01 0.02 0.03 0.02 0.00 0.00 0.00 0.00 0.00 0.00 0.00 0.00 0.00 0.00 0.00 0.00 0.00 0.00 0.00 0.00 0.00 0.00 0.00 0.00 0.00 0.00 0.00 0.00 0.00 0.00 0.00 0.00 0.00 0.00 0.00 0.00 0.00 0.00 0.00 0.00 0.00 0.00
0.00 0.00 0.00 0.00 0.00 0.00 0.00 0.00 0.00 0.00 0.00 0.00 0.00 0.00 0.00 0.00 0.00 0.00 0.00 0.00 0.00 0.00 0.00 0.00 0.00 0.00 0.00 0.00 0.00 0.00 0.00 0.00 0.00 0.00 0.00 0.00 0.00 0.00 0.00 0.00 0.00 0.00 0.00 0.00 0.00
0.00 0.00 0.00 0.00 0.00 0.00 0.00 0.00 0.00 0.00 0.00 0.00 0.00 0.00 0.00 0.00 0.00 0.00 0.00 0.00 0.00 0.00 0.00 0.00 0.00 0.00 0.00 0.00 0.00 0.00 0.00 0.00 0.00 0.00 0.00 0.00 0.00 0.00 0.00 0.00 0.00 0.00 0.00 0.00 0.00
0.00 0.00 0.00 0.00 0.00 0.00 0.00 0.00 0.00 0.00 0.00 0.00 0.00 0.00 0.00 0.00 0.00 0.00 0.00 0.00 0.00 0.00 0.00 0.00 0.00 0.00 0.00 0.00 0.01 0.00 0.00 0.00 0.00 0.00 0.00 0.00 0.00 0.00 0.00 0.00 0.00 0.00 0.00 0.00 0.00
0.00 0.00 0.00 0.00 0.00 0.00 0.00 0.00 0.00 0.00 0.00 0.00 0.00 0.00 0.00 0.00 0.00 0.00 0.00 0.00 0.00 0.00 0.00 0.00 0.00 0.00 0.00 0.00 0.00 0.00 0.00 0.00 0.00 0.00 0.00 0.00 0.00 0.00 0.00 0.00 0.00 0.00 0.00 0.00 0.00
0.00 0.00 0.00 0.00 0.00 0.00 0.00 0.00 0.00 0.00 0.00 0.00 0.00 0.00 0.00 0.00 0.00 0.00 0.00 0.00 0.00 0.00 0.00 0.00 0.00 0.00 0.00 0.00 0.00 0.00 0.00 0.00 0.00 0.00 0.00 0.00 0.00 0.00 0.00 0.00 0.00 0.00 0.00 0.00 0.00
0.00 0.00 0.00 0.00 0.00 0.00 0.00 0.00 0.00 0.00 0.00 0.00 0.00 0.00 0.00 0.00 0.00 0.00 0.00 0.00 0.00 0.00 0.00 0.00 0.00 0.00 0.00 0.00 0.00 0.00 0.00 0.00 0.00 0.00 0.00 0.00 0.00 0.00 0.00 0.00 0.00 0.00 0.00 0.00 0.00
0.00 0.00 0.00 0.00 0.00 0.00 0.00 0.00 0.00 0.00 0.00 0.00 0.00 0.00 0.00 0.00 0.00 0.00 0.00 0.00 0.00 0.00 0.00 0.00 0.00 0.00 0.00 0.00 0.00 0.00 0.00 0.00 0.00 0.00 0.00 0.00 0.00 0.00 0.00 0.00 0.00 0.00 0.00 0.00 0.00
0.00 0.00 0.00 0.00 0.00 0.00 0.00 0.00 0.00 0.00 0.00 0.00 0.00 0.00 0.00 0.00 0.00 0.00 0.00 0.00 0.00 0.00 0.00 0.00 0.00 0.00 0.00 0.00 0.00 0.00 0.00 0.00 0.00 0.00 0.00 0.00 0.00 0.00 0.00 0.00 0.00 0.00 0.00 0.00 0.00
0.00 0.00 0.00 0.00 0.00 0.00 0.00 0.00 0.00 0.00 0.00 0.00 0.00 0.00 0.00 0.00 0.00 0.00 0.00 0.00 0.00 0.00 0.00 0.00 0.00 0.00 0.00 0.00 0.00 0.00 0.00 0.00 0.00 0.00 0.00 0.00 0.00 0.00 0.00 0.00 0.00 0.00 0.00 0.00 0.00
0.00 0.00 0.00 0.00 0.00 0.00 0.00 0.00 0.00 0.00 0.00 0.00 0.00 0.00 0.00 0.00 0.00 0.00 0.00 0.00 0.00 0.00 0.00 0.00 0.00 0.00 0.00 0.00 0.00 0.00 0.00 0.00 0.00 0.00 0.00 0.00 0.00 0.00 0.00 0.00 0.00 0.00 0.00 0.00 0.00
0.00 0.00 0.00 0.00 0.00 0.00 0.00 0.00 0.00 0.00 0.00 0.00 0.00 0.00 0.00 0.00 0.00 0.00 0.00 0.00 0.00 0.00 0.00 0.00 0.00 0.00 0.00 0.00 0.00 0.00 0.00 0.00 0.00 0.00 0.00 0.00 0.00 0.00 0.00 0.00 0.00 0.00 0.00 0.00 0.00
0.00 0.00 0.00 0.00 0.00 0.00 0.00 0.00 0.00 0.00 0.00 0.00 0.00 0.00 0.00 0.00 0.00 0.00 0.00 0.00 0.00 0.00 0.00 0.00 0.00 0.00 0.00 0.00 0.00 0.00 0.00 0.00 0.00 0.00 0.00 0.00 0.00 0.00 0.00 0.00 0.00 0.00 0.00 0.00 0.00
0.00 0.00 0.00 0.00 0.00 0.00 0.00 0.00 0.00 0.00 0.00 0.00 0.00 0.00 0.00 0.00 0.00 0.00 0.00 0.00 0.00 0.00 0.00 0.00 0.00 0.00 0.00 0.00 0.00 0.00 0.00 0.00 0.00 0.00 0.00 0.00 0.00 0.00 0.00 0.00 0.00 0.00 0.00 0.00 0.00
0.00 0.00 0.00 0.00 0.00 0.00 0.00 0.00 0.00 0.00 0.00 0.00 0.00 0.00 0.00 0.00 0.00 0.00 0.00 0.00 0.00 0.00 0.00 0.00 0.00 0.00 0.00 0.00 0.00 0.00 0.00 0.00 0.00 0.00 0.00 0.00 0.00 0.00 0.00 0.00 0.00 0.00 0.00 0.00 0.00
0.00 0.00 0.00 0.00 0.00 0.00 0.00 0.00 0.00 0.00 0.00 0.00 0.00 0.00 0.00 0.00 0.00 0.00 0.00 0.00 0.00 0.00 0.00 0.00 0.00 0.00 0.00 0.00 0.00 0.00 0.00 0.00 0.00 0.00 0.00 0.00 0.00 0.00 0.00 0.00 0.00 0.00 0.00 0.00 0.00
0.00 0.00 0.00 0.00 0.00 0.00 0.00 0.00 0.00 0.00 0.00 0.00 0.00 0.00 0.00 0.00 0.00 0.00 0.00 0.00 0.00 0.00 0.00 0.00 0.00 0.00 0.00 0.00 0.00 0.00 0.00 0.00 0.00 0.00 0.00 0.00 0.00 0.00 0.00 0.00 0.00 0.00 0.00 0.00 0.00
0.00 0.00 0.00 0.00 0.00 0.00 0.00 0.00 0.00 0.00 0.00 0.00 0.00 0.00 0.00 0.00 0.00 0.00 0.00 0.00 0.00 0.00 0.00 0.00 0.00 0.00 0.00 0.00 0.00 0.00 0.00 0.00 0.00 0.00 0.00 0.00 0.00 0.00 0.00 0.00 0.00 0.00 0.00 0.00 0.00
0.00 0.00 0.00 0.00 0.00 0.00 0.00 0.00 0.00 0.00 0.00 0.00 0.00 0.00 0.00 0.00 0.00 0.00 0.00 0.00 0.00 0.00 0.00 0.00 0.00 0.00 0.00 0.00 0.00 0.00 0.00 0.00 0.00 0.00 0.00 0.00 0.00 0.00 0.00 0.00 0.00 0.00 0.00 0.00 0.00
0.00 0.00 0.00 0.00 0.00 0.00 0.00 0.00 0.00 0.00 0.00 0.00 0.00 0.00 0.00 0.00 0.00 0.00 0.00 0.00 0.00 0.00 0.00 0.00 0.00 0.00 0.00 0.00 0.00 0.00 0.00 0.00 0.00 0.00 0.00 0.00 0.00 0.00 0.00 0.00 0.00 0.00 0.00 0.00 0.00
0.00 0.00 0.00 0.00 0.00 0.00 0.00 0.00 0.00 0.00 0.00 0.00 0.00 0.00 0.00 0.00 0.00 0.00 0.00 0.00 0.00 0.00 0.00 0.00 0.00 0.00 0.00 0.00 0.00 0.00 0.00 0.00 0.00 0.00 0.00 0.00 0.00 0.00 0.00 0.00 0.00 0.00 0.00 0.00 0.00
MSLP
1015.52 1015.13 1015.22 1015.19 1015.28 1015.20 1014.71 1014.38 1014.57 1015.36 1015.87 1016.27 1016.50 1016.67 1016.98 1017.15 1017.03 1017.14 1017.52 1017.88 1017.41 1016.99 1016.73 1016.41 1016.25 1016.29 1016.25 1016.84 1017.11 1017.29 1018.01 1017.78 1016.93 1016.46 1016.09 1015.77 1015.53 1015.43 1015.33 1015.31 1015.16 1015.00 1015.07 1014.93 1014.87
1016.08 1016.02 1015.72 1015.59 1015.65 1015.46 1015.00 1015.26 1015.60 1016.00 1016.30 1016.78 1016.87 1017.14 1017.33 1017.46 1017.29 1017.59 1017.89 1017.53 1017.42 1017.17 1017.08 1017.01 1017.00 1016.96 1017.12 1017.29 1017.59 1017.77 1018.16 1017.40 1016.81 1016.54 1016.32 1016.27 1016.05 1015.79 1015.69 1015.72 1015.54 1015.23 1014.89 1014.67 1014.74
1016.69 1016.60 1016.38 1016.17 1016.16 1016.34 1016.23 1016.20 1016.41 1016.58 1016.79 1017.04 1017.25 1017.48 1017.66 1017.72 1017.69 1018.51 1017.89 1017.74 1017.57 1017.27 1017.21 1017.19 1017.19 1017.30 1017.50 1017.67 1017.95 1018.08 1017.99 1017.41 1017.02 1016.79 1016.61 1016.61 1016.59 1016.32 1016.09 1015.97 1015.55 1015.50 1015.03 1014.81 1014.81
1016.92 1017.03 1016.89 1016.95 1016.81 1016.61 1016.64 1016.93 1017.01 1017.07 1017.30 1017.67 1017.91 1017.83 1017.93 1017.81 1018.85 1018.63 1018.07 1018.09 1017.70 1017.49 1017.37 1017.43 1017.51 1017.75 1018.01 1018.17 1018.01 1018.17 1017.68 1017.56 1017.14 1016.91 1016.98 1017.06 1016.81 1016.74 1016.46 1015.91 1015.31 1015.23 1015.21 1015.07 1014.95
1017.22 1017.41 1017.55 1017.57 1017.53 1017.50 1017.67 1017.61 1017.69 1018.05 1018.22 1018.14 1018.08 1018.00 1018.04 1018.35 1018.98 1018.51 1018.24 1018.18 1017.93 1017.76 1017.86 1017.97 1018.30 1018.43 1018.63 1018.70 1018.48 1018.34 1017.95 1017.68 1017.44 1017.25 1017.01 1016.99 1016.88 1016.77 1016.17 1015.45 1015.15 1014.97 1014.99 1014.95 1014.81
1018.03 1018.07 1018.07 1018.15 1018.22 1018.39 1018.46 1018.41 1018.43 1018.47 1018.31 1018.09 1018.14 1018.20 1018.35 1018.67 1018.60 1018.28 1018.32 1018.32 1018.11 1018.07 1018.10 1018.29 1018.77 1018.79 1019.05 1019.03 1018.95 1018.53 1018.23 1017.85 1017.42 1017.16 1016.95 1016.92 1016.66 1016.71 1015.48 1015.02 1014.98 1014.79 1014.59 1014.49 1014.44
1019.09 1018.89 1018.65 1018.49 1018.42 1018.53 1018.62 1018.66 1018.61 1018.43 1018.39 1018.47 1018.41 1018.26 1018.60 1019.10 1018.69 1018.73 1018.65 1018.34 1018.25 1018.36 1018.50 1018.62 1018.77 1018.98 1019.25 1019.30 1018.89 1018.63 1018.53 1017.97 1017.23 1016.78 1016.72 1016.41 1016.34 1015.86 1014.91 1014.88 1014.90 1014.59 1014.36 1014.17 1014.26
1019.90 1019.76 1019.62 1019.36 1019.09 1018.94 1018.81 1018.63 1018.49 1018.48 1018.49 1018.40 1018.23 1018.17 1018.91 1018.65 1018.72 1018.84 1018.55 1018.47 1018.33 1018.25 1018.39 1018.53 1018.66 1019.04 1019.31 1019.33 1019.25 1019.20 1019.10 1018.70 1017.43 1016.86 1016.29 1016.42 1016.04 1015.46 1014.91 1014.75 1014.67 1014.57 1014.43 1014.50 1014.74
1020.53 1020.24 1019.98 1019.79 1019.59 1019.36 1019.03 1018.75 1018.60 1018.39 1018.32 1018.18 1018.28 1018.54 1019.36 1018.77 1018.89 1018.74 1018.54 1018.50 1018.40 1018.43 1018.53 1018.56 1018.93 1019.46 1019.61 1019.81 1020.20 1020.32 1020.19 1019.54 1018.40 1017.17 1016.62 1016.47 1016.00 1015.25 1014.67 1014.75 1014.81 1014.57 1014.55 1014.69 1014.71
1020.99 1020.70 1020.36 1019.99 1019.69 1019.34 1019.03 1018.91 1018.61 1018.38 1018.24 1018.36 1018.80 1019.47 1019.25 1019.17 1018.91 1018.75 1018.50 1018.58 1018.80 1018.84 1018.84 1019.04 1019.52 1020.01 1020.31 1020.55 1020.87 1020.62 1020.41 1019.75 1018.76 1017.49 1016.87 1016.60 1015.99 1015.40 1014.72 1014.57 1014.67 1014.77 1014.87 1014.85 1014.95
1021.56 1021.26 1020.89 1020.55 1020.15 1019.62 1019.17 1019.28 1019.95 1019.79 1019.59 1019.73 1019.70 1019.59 1019.39 1019.30 1019.11 1018.95 1018.74 1018.83 1019.02 1019.43 1019.73 1019.70 1020.36 1020.40 1020.25 1020.23 1020.07 1020.03 1020.03 1019.60 1018.65 1017.71 1017.43 1016.60 1015.86 1015.23 1014.62 1014.29 1014.35 1014.54 1014.70 1014.82 1014.76
1021.95 1021.61 1021.31 1021.03 1020.79 1020.34 1020.31 1021.17 1021.86 1022.40 1021.23 1020.00 1019.85 1019.63 1019.49 1019.45 1019.43 1019.11 1019.00 1019.38 1019.54 1019.83 1019.83 1020.20 1020.22 1019.74 1019.67 1019.72 1019.80 1019.78 1019.85 1019.35 1018.34 1017.70 1017.63 1016.83 1015.69 1014.75 1014.20 1013.72 1013.67 1014.10 1014.61 1014.64 1014.52
1022.16 1021.77 1021.38 1021.09 1020.80 1021.03 1021.56 1021.87 1021.87 1022.03 1021.69 1020.28 1019.72 1019.42 1019.29 1019.40 1019.25 1018.99 1019.10 1019.40 1019.87 1020.30 1020.31 1020.42 1019.63 1019.42 1019.45 1019.44 1019.53 1019.45 1019.52 1019.32 1019.06 1018.16 1017.39 1016.95 1015.48 1014.37 1013.15 1012.86 1013.15 1013.67 1013.94 1014.20 1014.02
1022.22 1021.84 1021.40 1020.98 1021.07 1021.57 1021.83 1021.80 1021.71 1021.79 1021.87 1020.97 1019.79 1019.28 1019.21 1019.15 1019.21 1018.79 1018.83 1019.48 1019.93 1020.36 1020.44 1020.20 1019.29 1019.12 1019.18 1019.27 1019.31 1019.28 1018.99 1019.21 1019.19 1019.17 1018.91 1017.90 1017.10 1014.77 1013.46 1013.00 1013.02 1013.39 1013.61 1013.53 1013.54
1022.38 1021.90 1021.56 1021.11 1021.52 1021.68 1021.75 1021.58 1021.58 1021.87 1022.10 1020.85 1019.73 1018.94 1019.02 1019.47 1019.40 1019.03 1019.16 1019.53 1020.03 1020.35 1020.90 1020.07 1019.51 1019.08 1018.90 1018.76 1019.01 1019.10 1019.02 1019.23 1019.23 1019.54 1019.45 1018.38 1018.40 1014.54 1013.67 1013.31 1013.20 1013.14 1012.95 1012.88 1012.92
1022.39 1022.05 1021.72 1021.57 1021.79 1021.61 1021.53 1021.49 1021.83 1022.24 1022.00 1020.90 1019.87 1019.43 1019.47 1019.50 1019.52 1019.40 1019.64 1019.83 1020.09 1020.46 1020.55 1020.21 1019.32 1018.99 1018.43 1018.24 1018.37 1018.55 1018.97 1019.09 1019.29 1019.77 1019.68 1018.18 1017.85 1014.92 1013.75 1012.72 1012.65 1012.63 1012.50 1012.49 1012.56
1022.13 1021.82 1021.83 1021.64 1021.69 1021.40 1021.48 1021.80 1022.44 1022.40 1022.32 1021.22 1020.42 1020.02 1020.04 1019.79 1019.61 1019.68 1019.84 1020.28 1021.01 1021.37 1021.37 1020.59 1019.44 1018.65 1018.39 1018.41 1018.36 1018.74 1019.47 1020.12 1020.34 1020.41 1019.19 1017.75 1017.39 1014.15 1012.67 1012.12 1011.91 1012.13 1012.16 1012.22 1012.26
1021.81 1021.48 1021.63 1021.52 1021.57 1021.43 1021.70 1022.21 1022.62 1022.61 1021.93 1021.20 1020.67 1020.35 1020.37 1020.00 1019.92 1019.94 1020.32 1021.04 1021.59 1022.22 1022.71 1022.26 1019.95 1019.07 1018.46 1018.53 1018.72 1019.07 1019.59 1020.71 1021.61 1021.31 1019.75 1017.71 1016.12 1013.15 1011.75 1011.31 1011.44 1011.53 1011.75 1012.02 1012.16
1021.69 1021.83 1021.83 1021.85 1021.66 1021.72 1022.06 1022.76 1022.84 1022.30 1021.70 1021.41 1020.88 1020.75 1020.40 1020.08 1020.19 1020.27 1020.53 1021.18 1021.63 1022.25 1023.13 1022.95 1021.10 1019.37 1018.81 1018.66 1018.99 1019.21 1019.83 1020.29 1021.09 1021.31 1020.76 1017.81 1014.98 1012.63 1012.00 1011.82 1011.82 1011.81 1011.94 1011.93 1011.92
1022.38 1022.40 1022.10 1021.78 1021.83 1022.22 1022.55 1022.84 1022.33 1021.55 1021.27 1021.27 1021.31 1020.94 1020.90 1020.55 1020.64 1020.59 1020.53 1020.72 1021.28 1021.71 1022.18 1022.99 1022.60 1020.35 1019.40 1019.09 1019.19 1019.41 1019.99 1020.70 1021.45 1022.01 1020.96 1018.01 1016.01 1013.78 1012.82 1012.38 1012.21 1012.14 1011.92 1011.76 1011.71
1022.55 1022.78 1022.26 1021.99 1022.05 1022.52 1023.44 1022.76 1021.74 1021.18 1021.17 1021.39 1021.34 1021.18 1020.91 1020.86 1020.69 1020.61 1020.51 1020.71 1021.07 1021.75 1022.17 1022.63 1023.17 1021.25 1020.41 1019.77 1019.42 1019.96 1020.29 1021.07 1021.91 1022.36 1022.18 1020.55 1015.42 1012.88 1012.30 1012.03 1012.00 1011.91 1011.73 1011.59 1011.56
1023.11 1023.08 1022.59 1022.41 1022.80 1023.05 1023.08 1022.24 1021.67 1021.27 1021.24 1021.29 1021.40 1021.40 1021.17 1020.94 1020.73 1020.71 1020.50 1020.27 1020.65 1021.34 1022.32 1022.74 1023.14 1022.59 1020.57 1019.77 1019.62 1019.64 1019.99 1020.80 1022.01 1022.46 1022.14 1021.18 1016.24 1012.49 1011.87 1011.57 1011.58 1011.65 1011.58 1011.30 1011.14
1024.18 1023.36 1022.59 1022.56 1023.23 1023.11 1022.38 1021.88 1021.42 1021.29 1021.28 1021.36 1021.30 1021.33 1021.29 1021.30 1021.26 1020.59 1020.33 1020.13 1020.57 1021.26 1021.80 1022.56 1023.51 1023.20 1020.86 1020.55 1019.98 1020.04 1020.03 1020.60 1021.53 1022.09 1021.69 1020.62 1015.22 1012.24 1011.83 1011.69 1011.46 1011.52 1011.37 1011.02 1010.99
1024.32 1023.91 1023.09 1022.97 1023.12 1022.87 1022.39 1021.62 1021.18 1021.02 1021.16 1021.22 1021.11 1021.03 1021.20 1021.29 1021.21 1021.05 1020.76 1020.68 1021.12 1021.61 1021.95 1022.61 1023.63 1023.37 1022.08 1020.30 1019.95 1019.93 1019.78 1020.31 1020.92 1022.02 1020.29 1017.55 1014.44 1012.51 1011.84 1011.62 1011.38 1011.25 1011.04 1010.76 1010.60
1024.51 1024.25 1024.07 1023.65 1023.07 1022.51 1022.31 1021.60 1021.10 1020.74 1020.93 1020.96 1021.08 1021.06 1021.11 1021.16 1020.95 1020.95 1020.76 1020.91 1021.41 1021.83 1022.68 1023.38 1023.55 1022.97 1021.57 1020.19 1019.81 1018.96 1018.94 1019.33 1019.73 1019.16 1018.97 1015.18 1014.37 1011.80 1011.53 1011.26 1010.85 1010.74 1010.56 1010.39 1010.11
1024.40 1024.34 1024.17 1023.67 1023.01 1022.43 1021.79 1021.26 1020.83 1020.45 1020.49 1020.74 1020.99 1020.50 1020.82 1020.97 1020.33 1020.37 1020.38 1020.90 1021.18 1022.34 1023.04 1023.68 1023.72 1023.35 1021.11 1019.10 1018.68 1018.03 1017.21 1017.30 1017.52 1017.38 1016.62 1015.22 1013.41 1011.03 1009.89 1010.15 1010.30 1010.00 1009.97 1009.75 1009.38
1024.27 1024.15 1024.09 1023.29 1022.82 1022.45 1021.21 1020.07 1019.80 1019.92 1019.59 1019.59 1020.15 1020.63 1020.55 1019.92 1019.81 1019.78 1020.12 1020.47 1020.92 1021.75 1022.92 1023.80 1024.04 1023.93 1021.59 1019.18 1017.99 1015.95 1013.37 1014.68 1014.40 1013.99 1013.96 1013.99 1010.85 1010.21 1009.78 1009.76 1009.35 1009.10 1009.14 1008.99 1008.73
Thickness
5470 5478 5487 5494 5498 5502 5520 5541 5554 5563 5575 5585 5593 5601 5605 5610 5617 5622 5619 5621 5627 5632 5636 5640 5641 5640 5642 5636 5636 5634 5617 5618 5633 5635 5637 5645 5648 5655 5659 5657 5660 5665 5666 5670 5676
5484 5484 5488 5494 5499 5510 5528 5539 5554 5566 5578 5584 5595 5599 5604 5607 5614 5615 5618 5622 5624 5627 5629 5628 5626 5627 5622 5623 5620 5613 5603 5617 5627 5627 5627 5631 5634 5637 5642 5641 5645 5651 5661 5668 5669
5497 5494 5496 5501 5508 5517 5531 5541 5553 5568 5578 5587 5593 5599 5603 5607 5610 5606 5617 5619 5620 5623 5624 5622 5620 5617 5613 5611 5606 5602 5597 5610 5613 5614 5616 5615 5616 5625 5628 5629 5634 5638 5648 5656 5661
5515 5511 5513 5517 5525 5535 5541 5547 5559 5571 5580 5583 5589 5597 5600 5607 5597 5607 5614 5614 5617 5618 5617 5613 5609 5603 5599 5593 5596 5589 5596 5596 5601 5604 5603 5601 5608 5607 5614 5624 5631 5635 5638 5644 5648
5534 5533 5532 5531 5536 5542 5545 5552 5560 5566 5572 5584 5593 5599 5602 5601 5600 5609 5613 5614 5615 5614 5608 5602 5592 5587 5580 5577 5579 5575 5579 5583 5584 5585 5588 5589 5592 5594 5606 5614 5623 5628 5630 5634 5639
5551 5551 5551 5550 5551 5551 5553 5558 5567 5573 5583 5594 5597 5601 5604 5602 5610 5612 5611 5609 5608 5603 5598 5591 5581 5576 5567 5563 5562 5565 5565 5565 5569 5572 5574 5575 5581 5582 5603 5606 5613 5619 5622 5627 5632
5562 5562 5563 5565 5568 5570 5574 5577 5581 5589 5594 5596 5600 5605 5605 5603 5609 5607 5604 5605 5602 5593 5581 5575 5569 5560 5553 5546 5552 5552 5547 5552 5559 5562 5559 5567 5569 5577 5590 5597 5601 5609 5614 5620 5624
5580 5578 5578 5577 5578 5579 5583 5588 5593 5597 5601 5606 5610 5613 5603 5610 5607 5601 5602 5599 5600 5593 5582 5572 5563 5549 5543 5540 5535 5532 5530 5521 5543 5549 5553 5552 5553 5570 5578 5584 5589 5596 5603 5606 5609
5594 5593 5593 5593 5594 5595 5597 5599 5602 5606 5609 5613 5613 5608 5595 5606 5603 5604 5603 5600 5598 5594 5585 5574 5558 5539 5531 5525 5511 5501 5494 5499 5515 5530 5537 5538 5541 5560 5570 5576 5579 5586 5590 5595 5600
5603 5603 5603 5604 5605 5608 5609 5610 5613 5616 5617 5616 5612 5603 5605 5602 5604 5605 5606 5603 5595 5587 5577 5564 5543 5525 5512 5502 5474 5485 5485 5490 5498 5515 5518 5518 5532 5550 5561 5569 5572 5574 5580 5586 5587
5609 5609 5609 5610 5611 5614 5617 5613 5605 5608 5609 5606 5605 5605 5607 5607 5607 5605 5604 5599 5593 5583 5566 5556 5532 5515 5511 5506 5501 5492 5479 5473 5486 5502 5498 5512 5526 5542 5555 5562 5568 5569 5573 5577 5580
5615 5615 5615 5614 5614 5616 5617 5604 5598 5596 5603 5613 5611 5610 5610 5607 5600 5602 5603 5592 5586 5573 5567 5543 5524 5527 5518 5508 5495 5485 5469 5466 5483 5495 5493 5501 5521 5539 5551 5561 5568 5566 5569 5572 5571
5621 5622 5622 5622 5621 5618 5610 5606 5605 5604 5604 5615 5616 5614 5612 5609 5604 5602 5599 5590 5581 5570 5565 5538 5541 5531 5521 5507 5495 5485 5474 5469 5471 5483 5491 5496 5508 5531 5553 5566 5566 5567 5568 5568 5572
5626 5627 5627 5628 5624 5618 5614 5612 5610 5608 5576 5606 5613 5614 5613 5609 5602 5606 5601 5590 5579 5571 5561 5551 5553 5539 5522 5510 5504 5482 5491 5485 5480 5468 5463 5492 5476 5517 5549 5564 5564 5562 5564 5571 5570
5627 5629 5629 5630 5623 5620 5619 5617 5614 5607 5568 5612 5610 5618 5613 5604 5601 5600 5596 5587 5578 5572 5557 5556 5554 5544 5530 5523 5513 5499 5501 5493 5493 5479 5478 5488 5468 5524 5555 5560 5561 5562 5571 5573 5569
5628 5628 5628 5627 5624 5622 5620 5617 5611 5583 5579 5605 5611 5608 5604 5601 5598 5596 5589 5585 5578 5570 5562 5553 5560 5553 5545 5539 5529 5520 5510 5503 5503 5487 5485 5505 5504 5525 5546 5562 5566 5567 5569 5569 5569
5632 5631 5629 5626 5624 5623 5620 5613 5584 5580 5602 5607 5603 5603 5598 5597 5596 5592 5588 5575 5561 5539 5537 5546 5562 5562 5556 5544 5538 5525 5504 5478 5477 5487 5486 5531 5515 5550 5563 5567 5568 5566 5566 5566 5565
5636 5635 5630 5627 5625 5623 5618 5605 5590 5607 5604 5605 5604 5600 5593 5597 5593 5590 5582 5563 5561 5551 5515 5514 5533 5562 5560 5552 5541 5533 5533 5505 5491 5463 5489 5530 5539 5555 5572 5571 5570 5569 5568 5566 5565
5636 5633 5629 5626 5624 5621 5610 5577 5596 5600 5606 5599 5599 5597 5595 5597 5590 5584 5580 5563 5561 5552 5538 5513 5537 5559 5562 5557 5546 5541 5510 5533 5519 5495 5513 5523 5550 5571 5567 5564 5562 5563 5563 5562 5563
5627 5625 5626 5624 5621 5614 5598 5602 5607 5612 5608 5602 5596 5599 5591 5589 5586 5581 5579 5576 5565 5559 5544 5538 5513 5550 5560 5557 5550 5544 5536 5504 5489 5492 5505 5522 5530 5538 5557 5550 5550 5554 5556 5560 5562
5622 5620 5621 5620 5617 5605 5576 5591 5612 5612 5607 5598 5595 5593 5594 5589 5586 5583 5582 5578 5568 5556 5547 5540 5518 5537 5552 5544 5540 5532 5522 5523 5497 5507 5478 5470 5526 5546 5552 5545 5543 5550 5556 5558 5559
5613 5613 5614 5612 5601 5586 5583 5608 5608 5607 5602 5598 5592 5587 5586 5588 5585 5583 5581 5583 5569 5561 5548 5542 5521 5503 5537 5549 5549 5543 5535 5527 5498 5495 5494 5471 5521 5567 5559 5547 5551 5556 5560 5562 5564
5600 5602 5609 5606 5582 5590 5600 5606 5605 5602 5597 5593 5591 5586 5586 5582 5577 5577 5581 5580 5566 5558 5549 5542 5510 5491 5550 5539 5543 5539 5537 5526 5496 5486 5494 5492 5536 5581 5570 5567 5566 5565 5564 5565 5564
5597 5595 5601 5595 5588 5600 5600 5601 5601 5597 5594 5590 5590 5590 5585 5577 5569 5570 5578 5571 5558 5554 5556 5548 5510 5519 5529 5556 5540 5533 5537 5527 5513 5454 5486 5527 5557 5582 5582 5575 5573 5570 5567 5565 5563
5586 5594 5587 5586 5591 5595 5595 5593 5596 5598 5588 5585 5583 5577 5574 5574 5580 5563 5569 5568 5557 5556 5540 5530 5500 5519 5534 5543 5540 5540 5540 5538 5508 5531 5516 5566 5544 5581 5573 5576 5579 5573 5568 5566 5563
5583 5583 5577 5578 5582 5587 5584 5585 5588 5591 5587 5580 5571 5584 5566 5565 5573 5577 5573 5565 5562 5540 5532 5523 5507 5491 5512 5553 5541 5539 5544 5544 5543 5543 5547 5559 5569 5595 5599 5585 5570 5571 5572 5572 5571
5571 5569 5568 5579 5575 5577 5586 5589 5589 5586 5589 5586 5573 5568 5563 5568 5570 5565 5560 5557 5552 5535 5524 5514 5496 5492 5531 5545 5539 5540 5558 5560 5559 5557 5562 5548 5585 5588 5585 5586 5586 5586 5582 5582 5580